Weather History for KBIL - January, 2014

Change the Weather History Date:

Friday, January 10, 2014

  Actual Average Record
Temperature  
Mean Temperature 36 °F 27 °F  
Max Temperature 43 °F 36 °F 59 °F (1941)
Min Temperature 28 °F 17 °F -22 °F (1949)
Degree Days  
Heating Degree Days 29 38  
Month to date heating degree days 386 387  
Since 1 July heating degree days 3311 3208  
Cooling Degree Days 0 0  
Month to date cooling degree days 0 0  
Year to date cooling degree days 0 0  
Moisture  
Dew Point 21 °F    
Average Humidity 55    
Maximum Humidity 63    
Minimum Humidity 47    
Precipitation  
Precipitation T in 0.02 in 0.16 in (2007)
Month to date precipitation 0.56 0.16  
Year to date precipitation 0.56 0.16  
Snow  
Snow T in 0.30 in 3.20 in (2007)
Month to date snowfall 9.3 2.8  
Since 1 July snowfall 44.3 22.7  
Snow Depth 2.00 in    
Sea Level Pressure  
Sea Level Pressure 29.71 in    
Wind  
Wind Speed 15 mph (West)    
Max Wind Speed 32 mph    
Max Gust Speed 39 mph    
Visibility 10 miles    
Events Snow    
T = Trace of Precipitation, MM = Missing Value Source: NWS Daily Summary

Daily Weather History Graph

Daily Weather History Graph

Search for Another Location

Airport or City:

Trip Planner

Search our weather history database for the weather conditions in past years. The results will help you decide how hot, cold, wet, or windy it might be!

Date:

Astronomy

Jan. 10, 2014 Rise Set
Actual Time 7:53 AM MST 4:50 PM MST
Civil Twilight 7:20 AM MST 5:23 PM MST
Nautical Twilight 6:42 AM MST 6:01 PM MST
Astronomical Twilight 6:07 AM MST 6:36 PM MST
Moon 1:00 PM MST (1/10) 2:59 AM MST (1/10)
Length of Visible Light 10h 03m
Length of Day
8h 56m
Waxing Gibbous, 75% of the Moon is Illuminated
Jan 10
Waxing Gibbous
Jan 15
Full
Jan 23
Last Quarter
Jan 30
New
Feb 6
First Quarter

Hourly Weather History & Observations

Time (MST) Temp. Windchill Dew Point Humidity Pressure Visibility Wind Dir Wind Speed Gust Speed Precip Events Conditions
12:53 AM 33.1 °F 23.0 °F 17.1 °F 52% 29.66 in 10.0 mi West 15.0 mph 25.3 mph N/A   Scattered Clouds
1:53 AM 30.0 °F 21.1 °F 17.1 °F 59% 29.68 in 10.0 mi SSW 10.4 mph - N/A   Mostly Cloudy
2:53 AM 28.0 °F 17.5 °F 17.1 °F 63% 29.66 in 10.0 mi WSW 12.7 mph - N/A   Overcast
3:53 AM 28.9 °F 19.2 °F 17.1 °F 61% 29.65 in 10.0 mi WSW 11.5 mph - N/A   Overcast
4:53 AM 32.0 °F 23.6 °F 19.9 °F 61% 29.64 in 10.0 mi SW 10.4 mph - N/A   Overcast
5:53 AM 30.9 °F 26.2 °F 19.9 °F 64% 29.66 in 9.0 mi WNW 4.6 mph - 0.00 in Snow Light Snow
6:53 AM 32.0 °F 24.2 °F 19.9 °F 61% 29.67 in 10.0 mi WSW 9.2 mph - 0.00 in   Overcast
7:53 AM 30.9 °F 21.7 °F 18.0 °F 59% 29.66 in 10.0 mi SW 11.5 mph - N/A   Overcast
8:53 AM 32.0 °F 22.5 °F 19.0 °F 59% 29.66 in 10.0 mi WSW 12.7 mph - N/A   Mostly Cloudy
9:53 AM 34.0 °F 24.6 °F 19.9 °F 56% 29.67 in 10.0 mi WSW 13.8 mph - N/A   Mostly Cloudy
10:53 AM 36.0 °F 28.5 °F 21.9 °F 57% 29.67 in 10.0 mi SW 10.4 mph - N/A   Mostly Cloudy
11:53 AM 42.1 °F 32.3 °F 24.1 °F 49% 29.63 in 10.0 mi West 24.2 mph 33.4 mph N/A   Scattered Clouds
12:53 PM 41.0 °F 30.7 °F 24.1 °F 51% 29.62 in 10.0 mi West 25.3 mph 32.2 mph N/A   Scattered Clouds
2:53 PM 42.1 °F 32.1 °F 24.1 °F 49% 29.65 in 10.0 mi West 25.3 mph 35.7 mph N/A   Mostly Cloudy
3:53 PM 41.0 °F 31.9 °F 24.1 °F 51% 29.69 in 10.0 mi WNW 19.6 mph - N/A   Scattered Clouds
4:53 PM 39.9 °F 31.4 °F 24.1 °F 53% 29.70 in 10.0 mi West 16.1 mph - N/A   Scattered Clouds
5:53 PM 39.9 °F 30.2 °F 21.9 °F 49% 29.73 in 10.0 mi WNW 20.7 mph - N/A   Mostly Cloudy
6:53 PM 39.9 °F 30.2 °F 21.9 °F 49% 29.75 in 10.0 mi WNW 20.7 mph 28.8 mph N/A   Mostly Cloudy
7:53 PM 39.0 °F 29.6 °F 21.0 °F 49% 29.80 in 10.0 mi WNW 18.4 mph - N/A   Partly Cloudy
8:53 PM 37.9 °F 29.6 °F 21.9 °F 53% 29.83 in 10.0 mi WNW 13.8 mph - N/A   Scattered Clouds
9:53 PM 37.0 °F 28.1 °F 21.9 °F 54% 29.84 in 10.0 mi WNW 15.0 mph - N/A   Mostly Cloudy
10:53 PM 37.9 °F 32.1 °F 21.0 °F 51% 29.87 in 10.0 mi WSW 8.1 mph - N/A   Mostly Cloudy
11:53 PM 37.9 °F 30.0 °F 23.0 °F 55% 29.84 in 10.0 mi NW 12.7 mph - N/A   Mostly Cloudy